This is the latest recevied weather packets stored in our database for station/object WA4TPR. If no packets are shown the sender has not sent any weather packets the latest 10 day(s).
| Time | Temp. | Humidity | Pressure | Rain* | Wind** | Luminosity | Snow |
|---|---|---|---|---|---|---|---|
| 1778165781 | 30° C | 68% | 1020.8 hPa | 0 mm | - | 632 W/m² | - |
| 1778165479 | 29.44° C | 70% | 1020.8 hPa | 0 mm | - | 607 W/m² | - |
| 1778165174 | 29.44° C | 72% | 1020.7 hPa | 0 mm | - | 592 W/m² | - |
| 1778164873 | 28.89° C | 73% | 1020.5 hPa | 0 mm | - | 577 W/m² | - |
| 1778164569 | 28.89° C | 72% | 1020.8 hPa | 0 mm | - | 566 W/m² | - |
| 1778164267 | 28.89° C | 74% | 1020.9 hPa | 0 mm | - | 545 W/m² | - |
| 1778163961 | 28.89° C | 76% | 1021 hPa | 0 mm | - | 529 W/m² | - |
| 1778163659 | 28.33° C | 77% | 1020.9 hPa | 0 mm | - | 517 W/m² | - |
| 1778163355 | 28.89° C | 76% | 1020.8 hPa | 0 mm | - | 499 W/m² | - |
| 1778163052 | 28.89° C | 77% | 1020.8 hPa | 0 mm | - | 488 W/m² | - |
| 1778162749 | 27.78° C | 80% | 1020.9 hPa | 0 mm | - | 472 W/m² | - |
| 1778162446 | 27.78° C | 80% | 1020.9 hPa | 0 mm | - | 452 W/m² | - |
| 1778162143 | 27.78° C | 80% | 1020.8 hPa | 0 mm | - | 437 W/m² | - |
| 1778161840 | 27.78° C | 80% | 1020.6 hPa | 0 mm | - | 423 W/m² | - |
| 1778161536 | 27.22° C | 81% | 1020.6 hPa | 0 mm | - | 406 W/m² | - |
| 1778161232 | 27.22° C | 81% | 1020.5 hPa | 0 mm | - | 390 W/m² | - |
| 1778160928 | 27.22° C | 81% | 1020.7 hPa | 0 mm | - | 371 W/m² | - |
| 1778160627 | 27.22° C | 82% | 1020.8 hPa | 0 mm | - | 358 W/m² | - |
| 1778160323 | 26.67° C | 83% | 1020.7 hPa | 0 mm | - | 338 W/m² | - |
| 1778160019 | 26.67° C | 84% | 1020.6 hPa | 0 mm | - | 327 W/m² | - |
| 1778159717 | 26.67° C | 84% | 1020.6 hPa | 0 mm | - | 301 W/m² | - |
| 1778159414 | 26.67° C | 85% | 1020.7 hPa | 0 mm | - | 285 W/m² | - |
| 1778159111 | 26.11° C | 85% | 1020.5 hPa | 0 mm | - | 267 W/m² | - |
| 1778158809 | 26.11° C | 86% | 1020.5 hPa | 0 mm | - | 253 W/m² | - |
| 1778158507 | 26.11° C | 87% | 1020.4 hPa | 0 mm | - | 237 W/m² | - |
* Rain latest hour (hover to see other rain measurements)
** Current wind speed in m/s (hover to see current wind gust speed)